Time,TemperatureF,DewpointF,PressureIn,WindDirection,WindDirectionDegrees,WindSpeedMPH,WindSpeedGustMPH,Humidity,HourlyPrecipIn,Conditions,Clouds,dailyrainin,SoftwareType,DateUTC
2013-07-02 00:32:00,65.0,53.0,30.03,NE,53,9.0,12.0,66,0.00,,,0.00,,2013-07-02 04:32:00,
2013-07-02 00:53:00,65.0,55.0,30.03,ENE,68,5.0,10.0,69,0.00,,,0.00,,2013-07-02 04:53:00,
2013-07-02 01:02:00,65.0,55.0,30.03,ENE,78,3.0,10.0,70,0.00,,,0.00,,2013-07-02 05:02:00,
2013-07-02 01:32:00,65.0,56.0,30.02,ENE,57,3.0,7.0,73,0.00,,,0.00,,2013-07-02 05:32:00,
2013-07-02 01:43:00,65.0,56.0,30.02,NE,36,1.0,5.0,74,0.00,,,0.00,,2013-07-02 05:43:00,
2013-07-02 01:53:00,65.0,56.0,30.02,NE,47,2.0,11.0,74,0.00,,,0.00,,2013-07-02 05:53:00,
2013-07-02 02:34:00,64.0,56.0,30.01,NNE,23,4.0,9.0,75,0.00,,,0.00,,2013-07-02 06:34:00,
2013-07-02 02:53:00,64.0,56.0,30.01,NE,51,2.0,9.0,76,0.00,,,0.00,,2013-07-02 06:53:00,
2013-07-02 03:01:00,64.0,57.0,30.01,East,86,5.0,16.0,77,0.00,,,0.00,,2013-07-02 07:01:00,
2013-07-02 03:22:00,64.0,57.0,30.01,NNE,21,6.0,12.0,78,0.00,,,0.00,,2013-07-02 07:22:00,
2013-07-02 03:44:00,63.0,57.0,30.01,North,9,3.0,7.0,80,0.00,,,0.00,,2013-07-02 07:44:00,
2013-07-02 03:53:00,63.0,57.0,30.01,North,360,2.0,8.0,80,0.00,,,0.00,,2013-07-02 07:53:00,
2013-07-02 04:02:00,62.0,56.0,30.00,NE,48,4.0,13.0,80,0.00,,,0.00,,2013-07-02 08:02:00,
2013-07-02 04:12:00,62.0,56.0,30.00,ENE,57,5.0,9.0,80,0.00,,,0.00,,2013-07-02 08:12:00,
2013-07-02 04:44:00,62.0,56.0,30.00,NNE,28,4.0,8.0,82,0.00,,,0.00,,2013-07-02 08:44:00,
2013-07-02 04:53:00,62.0,56.0,30.00,North,355,2.0,8.0,82,0.00,,,0.00,,2013-07-02 08:53:00,
2013-07-02 05:52:00,60.0,55.0,30.01,NE,44,5.0,13.0,83,0.00,,,0.00,,2013-07-02 09:52:00,
2013-07-02 06:01:00,60.0,55.0,30.01,North,349,4.0,12.0,83,0.00,,,0.00,,2013-07-02 10:01:00,
2013-07-02 08:01:00,58.0,54.0,30.03,NNW,340,4.0,9.0,88,0.00,,,0.00,,2013-07-02 12:01:00,
2013-07-02 08:43:00,58.0,55.0,30.03,North,360,2.0,11.0,90,0.00,,,0.00,,2013-07-02 12:43:00,
2013-07-02 08:52:00,58.0,55.0,30.03,NE,42,4.0,9.0,90,0.00,,,0.00,,2013-07-02 12:52:00,
2013-07-02 09:01:00,58.0,55.0,30.03,NE,44,2.0,10.0,90,0.00,,,0.00,,2013-07-02 13:01:00,
2013-07-02 09:43:00,57.0,55.0,30.03,NNW,331,4.0,6.0,94,0.06,,,0.06,,2013-07-02 13:43:00,
2013-07-02 10:02:00,58.0,56.0,30.03,NE,49,1.0,6.0,94,0.04,,,0.06,,2013-07-02 14:02:00,
2013-07-02 10:11:00,58.0,56.0,30.03,NNW,346,3.0,6.0,94,0.03,,,0.06,,2013-07-02 14:11:00,
2013-07-02 10:43:00,59.0,57.0,30.03,North,355,2.0,4.0,94,0.00,,,0.06,,2013-07-02 14:43:00,
2013-07-02 11:11:00,60.0,58.0,30.03,NNE,28,1.0,5.0,94,0.00,,,0.06,,2013-07-02 15:11:00,
2013-07-02 11:33:00,61.0,59.0,30.04,East,90,3.0,6.0,94,0.00,,,0.06,,2013-07-02 15:33:00,
2013-07-02 11:53:00,61.0,59.0,30.04,North,5,3.0,4.0,94,0.00,,,0.06,,2013-07-02 15:53:00,
2013-07-02 12:01:00,61.0,59.0,30.04,North,355,3.0,4.0,94,0.01,,,0.07,,2013-07-02 16:01:00,
2013-07-02 12:12:00,61.0,60.0,30.04,ENE,61,1.0,5.0,95,0.01,,,0.07,,2013-07-02 16:12:00,
2013-07-02 12:43:00,61.0,60.0,30.04,NNE,33,2.0,6.0,95,0.02,,,0.08,,2013-07-02 16:43:00,
2013-07-02 13:02:00,62.0,61.0,30.04,NE,54,2.0,5.0,96,0.03,,,0.09,,2013-07-02 17:02:00,
2013-07-02 14:34:00,63.0,62.0,30.03,ENE,77,2.0,4.0,97,0.00,,,0.09,,2013-07-02 18:34:00,
2013-07-02 14:53:00,64.0,63.0,30.03,ENE,77,3.0,8.0,96,0.00,,,0.09,,2013-07-02 18:53:00,
2013-07-02 15:53:00,65.0,64.0,30.03,NE,55,2.0,5.0,96,0.00,,,0.09,,2013-07-02 19:53:00,
2013-07-02 16:33:00,65.0,64.0,30.02,ENE,58,1.0,3.0,96,0.00,,,0.09,,2013-07-02 20:33:00,
2013-07-02 16:43:00,66.0,65.0,30.02,NE,38,1.0,2.0,96,0.00,,,0.09,,2013-07-02 20:43:00,
2013-07-02 17:44:00,70.0,67.0,30.00,ENE,63,0.0,4.0,89,0.00,,,0.09,,2013-07-02 21:44:00,
2013-07-02 17:52:00,70.0,66.0,30.01,North,5,2.0,4.0,88,0.00,,,0.09,,2013-07-02 21:52:00,
2013-07-02 18:43:00,69.0,66.0,30.00,NNW,333,2.0,5.0,90,0.00,,,0.09,,2013-07-02 22:43:00,
2013-07-02 18:53:00,70.0,66.0,30.00,NNW,343,7.0,10.0,87,0.00,,,0.09,,2013-07-02 22:53:00,
2013-07-02 19:01:00,70.0,66.0,30.00,North,5,3.0,7.0,87,0.00,,,0.09,,2013-07-02 23:01:00,
2013-07-02 19:12:00,69.0,65.0,30.00,North,11,3.0,9.0,88,0.00,,,0.09,,2013-07-02 23:12:00,
2013-07-02 19:22:00,70.0,67.0,30.00,North,5,2.0,8.0,89,0.00,,,0.09,,2013-07-02 23:22:00,
2013-07-02 19:33:00,69.0,66.0,30.01,NW,326,2.0,5.0,89,0.00,,,0.09,,2013-07-02 23:33:00,
2013-07-02 19:52:00,70.0,66.0,30.01,NW,320,3.0,7.0,88,0.00,,,0.09,,2013-07-02 23:52:00,
2013-07-02 20:01:00,70.0,67.0,30.02,North,360,0.0,6.0,89,0.00,,,0.09,,2013-07-03 00:01:00,
2013-07-02 20:33:00,70.0,67.0,30.02,NNE,19,2.0,5.0,90,0.00,,,0.09,,2013-07-03 00:33:00,
2013-07-02 20:44:00,70.0,67.0,30.02,NE,40,1.0,5.0,90,0.00,,,0.09,,2013-07-03 00:44:00,
2013-07-02 20:52:00,69.0,66.0,30.02,NNE,26,3.0,7.0,90,0.00,,,0.09,,2013-07-03 00:52:00,
2013-07-02 21:01:00,69.0,66.0,30.02,ENE,60,2.0,7.0,89,0.00,,,0.09,,2013-07-03 01:01:00,
2013-07-02 21:11:00,69.0,65.0,30.01,ENE,59,1.0,7.0,88,0.00,,,0.09,,2013-07-03 01:11:00,
2013-07-02 21:33:00,69.0,66.0,30.01,North,10,2.0,5.0,89,0.01,,,0.10,,2013-07-03 01:33:00,
2013-07-02 21:56:00,69.0,66.0,30.02,NNW,348,1.0,3.0,89,0.01,,,0.10,,2013-07-03 01:56:00,
2013-07-02 22:14:00,68.0,65.0,30.02,North,355,1.0,3.0,90,0.01,,,0.10,,2013-07-03 02:14:00,
2013-07-02 22:27:00,67.0,64.0,30.02,North,10,1.0,4.0,91,0.00,,,0.10,,2013-07-03 02:27:00,
2013-07-02 22:39:00,67.0,65.0,30.02,ENE,67,1.0,3.0,92,0.00,,,0.10,,2013-07-03 02:39:00,
2013-07-02 22:55:00,67.0,65.0,30.03,NNE,19,1.0,3.0,92,0.00,,,0.10,,2013-07-03 02:55:00,
2013-07-02 23:05:00,67.0,65.0,30.03,NE,55,1.0,3.0,92,0.00,,,0.10,,2013-07-03 03:05:00,